Location: ICStars Ranch
(38.8297°N, 93.7687°W)
Time: 20:35:12
(UTC-05:00)

Daily predictions for brighter satellites

Satellite Brightness Start Highest point End
(mag) Time Altitude Azimuth Time Altitude Azimuth Time Altitude Azimuth
BREEZE-M DEB (TANK) 2.6 19:53:47 10° SW 19:56:15 73° SE 20:01:33 10° ENE
SL-27 R/B 3.1 19:57:43 10° NNW 20:01:17 64° WSW 20:04:52 10° S
Resurs 01 Rocket 2.3 19:57:26 10° SE 20:01:24 34° ENE 20:05:24 10° N
Timation 1 Rocket 4.4 20:00:17 10° S 20:06:13 66° ESE 20:12:10 10° NNE
Cosmos 2082 Rocket 2.8 20:03:00 10° N 20:08:18 39° ENE 20:13:32 10° SE
ISS -3.4 20:05:33 10° SSW 20:08:39 43° SE 20:11:46 10° ENE
FengYun 1-2 T 4.3 20:03:31 10° SSE 20:09:00 61° ENE 20:14:33 10° N
Cosmos 1605 Rocket 4.0 20:03:45 10° S 20:09:57 68° E 20:16:17 10° NNE
Meteor 1-24 Rocket 4.3 20:12:30 10° NNW 20:18:00 65° W 20:23:41 10° S
CZ-3B DEB 4.1 20:08:19 10° WSW 20:19:40 47° NW 20:25:04 10° NNE
FREGAT/IRIS 3.7 20:17:15 10° S 20:20:13 48° W 20:23:12 10° NNW
COSMOS 2487 3.0 20:20:13 10° N 20:23:35 38° ENE 20:26:45 11° SE
Cosmos 1271 Rocket 3.6 20:20:36 10° SSE 20:24:04 29° E 20:27:35 10° NNE
Cosmos 1758 3.2 20:21:24 10° S 20:25:20 71° E 20:29:20 10° NNE
Cosmos 2123 Rocket 4.2 20:19:57 10° N 20:26:17 79° W 20:32:31 10° S
H-2A R/B 4.0 20:21:55 10° SW 20:26:46 43° SSE 20:47:54 14° E
Cosmos 1818 3.6 20:23:18 10° NNW 20:28:47 87° ENE 20:34:11 10° SSE
Cosmos 372 Rocket 3.9 20:24:10 10° S 20:29:11 63° ESE 20:34:17 10° NNE
Cosmos 1269 Rocket 4.1 20:24:02 10° N 20:29:16 59° ENE 20:34:28 10° SSE
Cosmos 1953 2.2 20:27:38 10° S 20:31:41 78° E 20:35:45 10° N
Cosmos 1674 3.1 20:29:14 10° N 20:32:50 39° E 20:36:15 11° SSE
Lacrosse 5 3.9 20:29:21 10° W 20:33:41 27° NW 20:38:01 10° NNE
Cosmos 158 Rocket 4.1 20:28:53 10° N 20:33:56 53° ENE 20:39:05 10° SE
Resurs 1-3 3.5 20:32:23 10° SSE 20:36:44 71° ENE 20:41:07 10° N
Cosmos 1408 Rocket 3.8 20:33:28 10° N 20:37:50 51° E 20:42:11 10° SSE
Cosmos 1802 Rocket 4.5 20:32:23 10° SSE 20:37:52 36° E 20:43:24 10° NNE
USA 215 4.0 20:32:25 10° ENE 20:37:57 29° SE 20:43:27 10° S
Meteor 1-4 Rocket 2.9 20:38:58 10° SSW 20:42:24 63° W 20:45:52 10° N
Cosmos 1939 Rocket 4.1 20:42:57 22° E 20:43:57 24° ENE 20:47:17 10° NNE
Helios 1B rocket 2.6 20:41:01 10° NNE 20:45:00 45° E 20:48:56 10° S
Cosmos 1842 Rocket 4.4 20:50:28 26° ESE 20:51:22 28° E 20:55:08 10° NNE
Lacrosse 5 rocket 1.7 20:49:13 10° NNW 20:52:58 42° NE 20:54:09 32° E
Spot 2 Rocket 3.7 20:47:59 10° S 20:53:05 73° WSW 20:58:12 10° NNW
Cosmos 2061 Rocket 4.1 20:48:50 10° SSE 20:55:02 56° E 21:01:19 10° NNE
Cosmos 1076 Rocket 3.9 20:53:30 10° NNW 20:57:42 63° W 21:01:53 10° S
CZ-2D R/B 3.5 20:54:47 10° S 20:58:37 70° W 21:02:31 10° NNW
Cosmos 1459 Rocket 3.9 20:53:31 10° S 20:59:42 66° E 21:05:49 10° NNE
Timation 2 Rocket 3.9 20:55:23 10° NNW 21:01:41 84° ENE 21:06:20 18° SSE
Gblst 52 Del rocket 4.5 20:58:56 10° SSW 21:04:45 47° SE 21:07:37 26° ENE
Helios 1A 2.8 21:02:56 20° SSE 21:05:45 83° ENE 21:09:58 10° NNW
Abrixas 4.2 21:04:03 10° W 21:06:23 23° SW 21:06:58 21° SSW
ALOS 4.3 21:03:53 10° SSW 21:07:54 28° W 21:11:55 10° NW
Cosmos 2173 Rocket 3.9 21:01:50 10° S 21:07:59 76° E 21:14:15 10° N
Cosmos 1184 Rocket 3.8 21:06:01 10° N 21:08:25 33° NE 21:08:25 33° NE
Envisat 3.0 21:08:43 28° SE 21:11:16 62° ENE 21:16:18 10° N
Cosmos 1833 Rocket 2.9 21:06:27 10° NNW 21:12:03 70° WSW 21:16:33 16° S
Meteor 2-17 Rocket 4.4 21:10:06 10° S 21:16:08 62° E 21:22:12 10° NNE
Cosmos 1733 3.8 21:14:56 10° SSW 21:18:44 58° W 21:22:35 10° N
Cosmos 1470 3.5 21:16:49 10° SSW 21:20:43 53° W 21:24:36 10° N
SeaSat 1 3.9 21:16:37 10° S 21:21:03 34° WSW 21:25:32 10° NW
GPS 2-05 Rocket1 3.4 21:17:54 10° WSW 21:21:02 48° SSW 21:21:02 48° SSW
ATLAS 5 CENTAUR R/B 2.9 21:18:56 10° SW 21:23:26 45° NW 21:28:19 10° NNE
ERS-1 Rocket 3.3 21:23:15 42° E 21:23:33 42° ENE 21:28:17 10° N
Cosmos-2242 4.0 21:20:48 10° SSW 21:24:53 47° W 21:29:01 10° N
Geosat 4.4 21:20:05 10° NNE 21:25:04 63° WNW 21:30:01 10° SW
GP-B 4.1 21:24:21 10° SSW 21:28:35 45° W 21:32:52 10° NNW
USA 186 4.0 21:29:38 17° WNW 21:29:38 17° WNW 21:30:42 10° NW
H-2A R/B 4.1 21:31:01 14° NE 21:31:01 14° NE 21:32:38 10° NNE
OAO 2 Rocket 4.0 21:25:48 10° SW 21:30:18 38° S 21:30:18 38° S
Cosmos 1356 Rocket 3.6 21:27:01 10° N 21:30:27 54° NNE 21:30:27 54° NNE
CZ-4B DEB 3.8 21:33:42 44° WNW 21:33:42 44° WNW 21:36:18 10° NNW
CZ-3 Stage 3 3.6 21:02:12 10° W 21:35:05 56° SSW 21:38:06 38° SE
Cosmos 1340 Rocket 3.7 21:32:56 10° NNW 21:36:48 47° W 21:38:09 33° SW
Resurs 01 Rocket 4.1 21:34:41 10° SW 21:37:56 20° W 21:41:13 10° NW
BREEZE-M DEB (TANK) 4.4 21:37:15 10° NNW 21:38:18 20° N 21:38:18 20° N
Cosmos 2016 Rocket 3.9 21:33:57 10° S 21:40:11 84° W 21:46:22 10° N
ISS -1.6 21:42:34 10° W 21:45:14 23° NNW 21:45:26 23° NNW
Cosmos 1725 Rocket 3.8 21:47:24 39° S 21:49:52 80° E 21:56:05 10° N
Cosmos 2082 Rocket 4.0 21:47:25 10° NW 21:52:10 28° WSW 21:56:37 11° SSW
ARGOS 4.1 21:55:16 34° NE 21:55:16 34° NE 21:58:55 10° N
YAOGAN 6 4.5 21:58:47 27° NNW 21:58:47 27° NNW 22:00:36 10° NNW
Cosmos 1500 Rocket 4.0 21:52:39 10° NNW 21:56:35 57° WNW 21:56:35 57° WNW
Cosmos 2058 4.4 21:59:24 10° N 22:01:37 31° N 22:01:37 31° N
Meteor 1-11 4.2 21:58:06 10° NNW 22:03:41 75° W 22:04:09 70° SW
Cosmos 2251 Rocket 3.9 22:03:46 10° NNW 22:09:00 59° WSW 22:09:13 58° WSW
Tsikada Rocket 4.0 22:07:17 10° N 22:13:30 79° W 22:14:02 73° SW
BREEZE-M DEB (TANK) 4.3 22:11:45 10° W 22:16:10 64° N 22:33:55 10° ENE
SPOT 5 3.9 22:22:08 47° N 22:22:08 47° N 22:25:52 10° N
USA 215 3.3 22:14:45 10° NE 22:21:15 72° NW 22:27:44 10° WSW
Terra 4.3 22:31:04 13° NNE 22:31:04 13° NNE 22:31:37 10° NNE
Lacrosse 5 rocket 4.2 22:29:16 10° WNW 22:29:53 13° W 22:29:53 13° W
CZ-3B DEB 4.5 22:29:57 10° NW 22:32:07 12° NNW 22:33:52 10° N
Cosmos 2369 Rocket 3.5 22:43:23 34° N 22:43:23 34° N 22:46:44 10° NNE
USA 267 4.0 22:53:31 44° N 22:53:31 44° N 22:58:47 10° NW
H-2A R/B 4.1 23:11:38 25° NNW 23:11:38 25° NNW 23:13:46 10° NNW
